Torna al catalogo

STARLINK-11648

AttivoComunicazioniVLEO
NORAD 63313·PAYLOAD·🇺🇸 United States

Lanciato Mar 18, 2025 da Cape Canaveral Space Force Station

Loading…

Prossimi Passaggi (prossime 24 ore)

TLE

AggiornatoSource: CelesTrak SupGP

Epoca: Sep 15, 2026, 02:32 UTC

1 63313C 25057G   26258.10604167 -.00044782  00000+0 -34787-3 0  2589
2 63313  43.0005 202.9835 0001465 271.2616 164.9450 15.70857376    19

Traccia STARLINK-11648 in tempo reale con AllMySat

Download on the App Store